When you browse on this site, cookies collect data to enhance your experience and personalize the content and advertising you see.
Visit our Privacy Policy to learn more. By continuing to use the site, you agree to this use of cookies and data.
  • en France
  • Liste des pays
  • À 7 jours
  • Température de l'eau
  • Carte satellitaire
  • Carte météo
  • Widgets météo
  • user-avatar
    Se connecter

    Météo par heure à Gedaref

    Ce jour, 16 Juin, Dimanche

    Heure Température Précipitation Vent Pression Humidité
    00:00 +30°C° 0 mm 6 m/s 710 mmHg 59%
    01:00 +30°C° 0 mm 6 m/s 710 mmHg 60%
    02:00 +30°C° 0 mm 6 m/s 709 mmHg 61%
    03:00 +29°C° 0 mm 6 m/s 710 mmHg 63%
    04:00 +29°C° 0 mm 7 m/s 710 mmHg 65%
    05:00 +28°C° 0 mm 8 m/s 711 mmHg 67%
    06:00 +29°C° 0 mm 8 m/s 711 mmHg 64%
    07:00 +29°C° 0 mm 7 m/s 711 mmHg 61%
    08:00 +30°C° 0 mm 6 m/s 712 mmHg 57%
    09:00 +32°C° 0 mm 6 m/s 712 mmHg 52%
    10:00 +34°C° 0 mm 6 m/s 712 mmHg 46%
    11:00 +36°C° 0 mm 5 m/s 712 mmHg 41%
    12:00 +37°C° 0 mm 5 m/s 711 mmHg 37%
    13:00 +39°C° 0 mm 5 m/s 711 mmHg 34%
    14:00 +40°C° 0 mm 5 m/s 710 mmHg 31%
    15:00 +38°C° 0 mm 4 m/s 710 mmHg 30%
    16:00 +38°C° 0 mm 4 m/s 710 mmHg 29%
    17:00 +38°C° 0 mm 3 m/s 710 mmHg 28%
    18:00 +38°C° 0 mm 3 m/s 710 mmHg 31%
    19:00 +37°C° 0 mm 3 m/s 710 mmHg 34%
    20:00 +36°C° 0 mm 3 m/s 711 mmHg 37%
    21:00 +35°C° 0 mm 4 m/s 711 mmHg 42%
    22:00 +34°C° 0 mm 4 m/s 711 mmHg 47%
    23:00 +33°C° 0 mm 5 m/s 711 mmHg 52%

    Demain, 17 Juin, Lundi

    Heure Température Précipitation Vent Pression Humidité
    00:00 +33°C° 0 mm 5 m/s 711 mmHg 54%
    01:00 +32°C° 0 mm 5 m/s 710 mmHg 57%
    02:00 +32°C° 0 mm 5 m/s 710 mmHg 59%
    03:00 +30°C° 0 mm 5 m/s 710 mmHg 61%
    04:00 +30°C° 0 mm 5 m/s 710 mmHg 62%
    05:00 +30°C° 0 mm 5 m/s 711 mmHg 64%
    06:00 +30°C° 0 mm 5 m/s 711 mmHg 62%
    07:00 +32°C° 0 mm 6 m/s 712 mmHg 59%
    08:00 +33°C° 0 mm 6 m/s 712 mmHg 57%
    09:00 +34°C° 0 mm 6 m/s 713 mmHg 51%
    10:00 +36°C° 0 mm 6 m/s 713 mmHg 45%
    11:00 +39°C° 0 mm 6 m/s 713 mmHg 39%
    12:00 +39°C° 0 mm 5 m/s 712 mmHg 36%
    13:00 +40°C° 0 mm 5 m/s 712 mmHg 33%
    14:00 +41°C° 0 mm 4 m/s 711 mmHg 30%
    15:00 +41°C° 0.1 mm 4 m/s 711 mmHg 30%
    16:00 +40°C° 0.1 mm 4 m/s 710 mmHg 31%
    17:00 +40°C° 0.1 mm 4 m/s 710 mmHg 31%
    18:00 +37°C° 1.2 mm 4 m/s 710 mmHg 38%
    19:00 +34°C° 1.2 mm 4 m/s 711 mmHg 45%
    20:00 +32°C° 1.2 mm 4 m/s 711 mmHg 52%
    21:00 +30°C° 1.1 mm 6 m/s 712 mmHg 59%
    22:00 +28°C° 1.1 mm 8 m/s 712 mmHg 66%
    23:00 +27°C° 1.1 mm 10 m/s 712 mmHg 73%

    Après-demain, 18 Juin, Mardi

    Heure Température Précipitation Vent Pression Humidité
    00:00 +27°C° 2 mm 10 m/s 712 mmHg 70%
    01:00 +27°C° 2 mm 9 m/s 712 mmHg 66%
    02:00 +27°C° 2 mm 8 m/s 712 mmHg 63%
    03:00 +26°C° 0.1 mm 8 m/s 712 mmHg 65%
    04:00 +26°C° 0.1 mm 7 m/s 712 mmHg 66%
    05:00 +26°C° 0.1 mm 7 m/s 712 mmHg 68%
    06:00 +27°C° 0 mm 6 m/s 713 mmHg 63%
    07:00 +29°C° 0 mm 6 m/s 713 mmHg 59%
    08:00 +30°C° 0 mm 6 m/s 714 mmHg 54%
    09:00 +32°C° 0 mm 6 m/s 714 mmHg 49%
    10:00 +34°C° 0 mm 6 m/s 714 mmHg 44%
    11:00 +35°C° 0 mm 5 m/s 714 mmHg 39%
    12:00 +36°C° 0 mm 5 m/s 713 mmHg 37%
    13:00 +36°C° 0 mm 5 m/s 713 mmHg 36%
    14:00 +37°C° 0 mm 4 m/s 712 mmHg 34%
    15:00 +37°C° 0 mm 4 m/s 712 mmHg 34%
    16:00 +37°C° 0 mm 3 m/s 711 mmHg 33%
    17:00 +37°C° 0 mm 3 m/s 711 mmHg 32%
    18:00 +36°C° 0 mm 3 m/s 711 mmHg 36%
    19:00 +35°C° 0 mm 4 m/s 712 mmHg 39%
    20:00 +34°C° 0 mm 4 m/s 712 mmHg 43%
    21:00 +34°C° 0 mm 5 m/s 712 mmHg 46%
    22:00 +33°C° 0 mm 5 m/s 712 mmHg 50%
    23:00 +32°C° 0 mm 6 m/s 712 mmHg 54%

    19 Juin, Mercredi

    Heure Température Précipitation Vent Pression Humidité
    00:00 +32°C° 0 mm 5 m/s 711 mmHg 56%
    01:00 +30°C° 0 mm 5 m/s 711 mmHg 59%
    02:00 +29°C° 0 mm 5 m/s 710 mmHg 61%
    03:00 +29°C° 0 mm 4 m/s 710 mmHg 63%
    04:00 +29°C° 0 mm 4 m/s 710 mmHg 64%
    05:00 +28°C° 0 mm 4 m/s 710 mmHg 66%
    06:00 +29°C° 0 mm 5 m/s 711 mmHg 63%
    07:00 +30°C° 0 mm 5 m/s 712 mmHg 60%
    08:00 +32°C° 0 mm 5 m/s 712 mmHg 57%
    09:00 +33°C° 0 mm 6 m/s 713 mmHg 51%
    10:00 +35°C° 0 mm 6 m/s 713 mmHg 45%
    11:00 +38°C° 0 mm 6 m/s 713 mmHg 39%
    12:00 +39°C° 0 mm 5 m/s 712 mmHg 36%
    13:00 +40°C° 0 mm 5 m/s 712 mmHg 32%
    14:00 +40°C° 0 mm 4 m/s 711 mmHg 29%
    15:00 +41°C° 0 mm 4 m/s 711 mmHg 28%
    16:00 +40°C° 0 mm 3 m/s 710 mmHg 27%
    17:00 +40°C° 0 mm 3 m/s 709 mmHg 26%
    18:00 +39°C° 0 mm 3 m/s 710 mmHg 28%
    19:00 +38°C° 0 mm 3 m/s 710 mmHg 31%
    20:00 +37°C° 0 mm 3 m/s 710 mmHg 33%
    21:00 +37°C° 0 mm 3 m/s 710 mmHg 36%
    22:00 +36°C° 0 mm 4 m/s 710 mmHg 38%
    23:00 +35°C° 0 mm 4 m/s 711 mmHg 41%

    20 Juin, Jeudi

    Heure Température Précipitation Vent Pression Humidité
    00:00 +34°C° 0 mm 5 m/s 710 mmHg 47%
    01:00 +33°C° 0 mm 6 m/s 710 mmHg 53%
    02:00 +30°C° 0 mm 7 m/s 709 mmHg 59%
    03:00 +30°C° 0 mm 7 m/s 709 mmHg 60%
    04:00 +29°C° 0 mm 6 m/s 709 mmHg 61%
    05:00 +29°C° 0 mm 6 m/s 709 mmHg 62%
    06:00 +29°C° 0 mm 6 m/s 710 mmHg 59%
    07:00 +30°C° 0 mm 6 m/s 711 mmHg 57%
    08:00 +32°C° 0 mm 6 m/s 711 mmHg 54%
    09:00 +34°C° 0 mm 6 m/s 711 mmHg 49%
    10:00 +36°C° 0 mm 6 m/s 711 mmHg 43%
    11:00 +39°C° 0 mm 6 m/s 712 mmHg 37%
    12:00 +40°C° 0 mm 6 m/s 711 mmHg 34%
    13:00 +41°C° 0 mm 6 m/s 711 mmHg 30%
    14:00 +42°C° 0 mm 6 m/s 710 mmHg 26%
    15:00 +42°C° 0 mm 5 m/s 710 mmHg 26%
    16:00 +42°C° 0 mm 5 m/s 709 mmHg 25%
    17:00 +42°C° 0 mm 5 m/s 709 mmHg 24%
    18:00 +41°C° 0.1 mm 4 m/s 709 mmHg 27%
    19:00 +39°C° 0.1 mm 3 m/s 710 mmHg 30%
    20:00 +38°C° 0.1 mm 3 m/s 710 mmHg 32%
    21:00 +36°C° 0.4 mm 5 m/s 710 mmHg 39%
    22:00 +34°C° 0.4 mm 8 m/s 710 mmHg 46%
    23:00 +32°C° 0.4 mm 10 m/s 711 mmHg 53%

    21 Juin, Vendredi

    Heure Température Précipitation Vent Pression Humidité
    00:00 +31°C° 0.1 mm 9 m/s 710 mmHg 57%
    01:00 +29°C° 0.1 mm 8 m/s 710 mmHg 60%
    02:00 +28°C° 0.1 mm 7 m/s 710 mmHg 64%
    03:00 +28°C° 0 mm 6 m/s 710 mmHg 61%
    04:00 +28°C° 0 mm 6 m/s 710 mmHg 58%
    05:00 +28°C° 0 mm 5 m/s 710 mmHg 55%
    06:00 +30°C° 0 mm 5 m/s 710 mmHg 53%
    07:00 +32°C° 0 mm 5 m/s 711 mmHg 50%
    08:00 +33°C° 0 mm 5 m/s 711 mmHg 47%
    09:00 +34°C° 0 mm 5 m/s 711 mmHg 43%
    10:00 +36°C° 0 mm 5 m/s 711 mmHg 39%
    11:00 +39°C° 0 mm 6 m/s 711 mmHg 34%
    12:00 +40°C° 0 mm 5 m/s 711 mmHg 32%
    13:00 +41°C° 0 mm 5 m/s 710 mmHg 29%
    14:00 +42°C° 0 mm 4 m/s 710 mmHg 27%
    15:00 +42°C° 0 mm 4 m/s 709 mmHg 26%
    16:00 +42°C° 0 mm 4 m/s 709 mmHg 25%
    17:00 +42°C° 0 mm 4 m/s 708 mmHg 24%
    18:00 +40°C° 0.5 mm 4 m/s 708 mmHg 30%
    19:00 +36°C° 0.5 mm 5 m/s 708 mmHg 37%
    20:00 +34°C° 0.5 mm 6 m/s 708 mmHg 43%
    21:00 +34°C° 0.7 mm 6 m/s 709 mmHg 46%
    22:00 +33°C° 0.7 mm 6 m/s 709 mmHg 48%
    23:00 +33°C° 0.7 mm 6 m/s 710 mmHg 50%
    Voir plus